Погода в Амране

Йемен     15°39′36″N   43°56′44″E
темп.,
°C
ветер,
м/с
пор.,
м/с
влажн.,
%
обл.,
%
осадки,
мм/ч
давл.,
гПа
погр.,
м
27 ноября, сб
сб2700:00+12вюв22610 0.0 102119
03:00+10вюв22660 0.0 102113
06:00+10вюв22660 0.0 102211
09:00+15вюв22440 0.0 1022523
12:00+20св34314 0.0 10171968
15:00+20св553226 0.0 10161883
18:00+15всв56443 0.0 1019365
21:00+13вюв22503 0.0 102231
28 ноября, вс
вс2800:00+11вюв22544 0.0 102214
03:00+10вюв22590 0.0 102114
06:00+8вюв22630 0.0 102313
09:00+14в46410 0.0 1023730
12:00+18в55274 0.0 10191394
15:00+19всв65245 0.0 10161716
18:00+14всв46330 0.0 1019149
21:00+11вюв22420 0.0 102218
29 ноября, пн
пн2900:00+10вюв22460 0.0 102214
03:00+8вюв22450 0.0 102213
06:00+7вюв22500 0.0 102313
09:00+13вюв35360 0.0 1023633
12:00+17в43230 0.0 10191394
15:00+19всв53200 0.0 10161814
18:00+13в34330 0.0 102069
21:00+10в22440 0.0 102323
30 ноября, вт
вт3000:00+9вюв22510 0.0 102315
03:00+7вюв22560 0.0 102214
06:00+6юв22600 0.0 102313
09:00+12вюв22320 0.0 1022394
12:00+18св22140 0.0 10171452
15:00+19св54150 0.0 10151623
18:00+13всв33260 0.0 101836
21:00+10в22380 0.0 102114
1 декабря, ср
ср100:00+8вюв22470 0.0 102012
03:00+6вюв22520 0.0 102011
06:00+5вюв22550 0.0 102111
09:00+12вюв22290 0.0 1020434
12:00+17всв22130 0.0 10151365
15:00+19св33120 0.0 10121665
18:00+13всв33230 0.0 101619
21:00+9вюв22300 0.0 101912